"Pseudo-MPEC" for N00kxn7

Created 2022 Dec 15 14:22:11 UT using Find_Orb

Click here for an explanation of pseudo-MPECs

 
 Astrometry: 
     N00kxn7* S2022 11 24+Y?`MLrw5AA%ATi^!4Ovbi[m-i+n!jMtj3G_DRf1vae@yfTOrQd%C51
     N00kxn7  s2022 11 24AIMB9)gdyL.+,N)i(IinWreMj7p]`CYSxv\?:\lgx+^[tf^=4;5yC51
     N00kxn7  S2022 11 24ipZPSuMgNK=ekWG73hiKml/0'%FZHLP(V^W)K,Uhqyrk2:Z+A_R3C51
     N00kxn7  s2022 11 24IbnNb)v4YXDq6NBv]dm7c?(PYb5THghqO6y8?OS-%JwSGs61@MO9C51
     N00kxn7  S2022 11 24/%sq:Ms[oDd`wVYL72471o8__IYfxsuWFFKst,CK]'B)VZthO2'hC51
     N00kxn7  s2022 11 245`ThY)E%PKSJ1vB\38dO[\Xk=,YF`5T!CBZMA`Wl9[$i#:pX++;vC51
     N00kxn7  S2022 11 24XJ0$iJmCKk?,`FO-_0e(g%^7^iBy-?1X)i!S]x%N=eFW1udJ_)RLC51
     N00kxn7  s2022 11 24/jGY`AY1SbT7,ue#`eZq:yAy(Mk=DlP^lqW$ZXXvIKiA1T\oU#H7C51
     N00kxn7  S2022 11 24*N)GLOx1Bo)ytc1,:[%eJFQX3MWkPouXRC+'up#DyWrbh%#*B'*sC51
     N00kxn7  s2022 11 24`-`gdQq3'AstrometryPe$[myQpC*MlpuIMYkUcdoJJ65V.H]^haC51
     N00kxn7  S2022 11 24s[`$+].3ST]N#0an?%XhO]%9ggv%/]xjwO4dhSpBdXj]]ILf,++EC51
     N00kxn7  s2022 11 24LLuQ[2O%/+.wIKeg$\cBnTZ+W`q=EVq(7H=IwB2\Qc+VOr4e613DC51
     N00kxn7  S2022 11 24k!QirvF4redacted;G(KoFNlh:Ns#3),_Ku)^?tt%FlUlZt+qt3=C51
     N00kxn7  s2022 11 24='E6_Xtk=8=muUfoX;N$a)JB_x'0s;M6vL[^'UlxgSi61*diEGmgC51
     N00kxn7  S2022 11 24,lo?0CU`I[B-6Ic(GeJT.`@lK/8rW%Y#tOB^swEv2A*DG+Ef/yuoC51
     N00kxn7  s2022 11 24?At)YG`_c3/+L\\qYHlcK600[v?4KhTmc7dw?D:SSy%65Po]BXb2C51
     N00kxn7  S2022 11 24BrGrk[x4ikwq;W7_KD8J#N_SwwOU9;QfbJWwHkgmBG]%UvPS5UV=C51
     N00kxn7  s2022 11 24nc;E8clickJ_SKo\m((4O$[m:#8EV'3yHP:nid-v@2FFH9(P'W/KC51
     N00kxn7 0C2022 12 14%W(=V^y0KxX8EV3uQEAQH4Zx;kaXfix^E]]Ub5g'n=7[9h[4@)I[T14
     N00kxn7 0C2022 12 14kCPb/s`Gw^M:s;2TcPlDiZ%#TbTDygOPIVRAT6IHdZ'0d%SE_1SGT14
     N00kxn7 0C2022 12 14k.kjb2@$cCZ;dh+3joQKh25R8iQwT+DEmj6U03eSGZqjf_Z56+##T14
     N00kxn7 KC2022 12 14uV;-lrl6q_Zan]q'$)]vs#5Sl%9p(hw,giXZZOs:7hwbIgR7=%nR221
     N00kxn7 KC2022 12 143`1L0:nj7X'Xla-eUx-Sa1-(=xyClQV,\qVPan*sObejI+EH8RcI221
     N00kxn7 |C2022 12 15_kghere]jd)u@j7VaH`pforjvERaiUl4#_A@.eOUm!*3kvC,x)/n807
     N00kxn7 |C2022 12 15s+9%l\[9p8x73`rxjj.]k8K]hHCfRRZ%]M_*/twZfOKyiwxYg,qY807
     N00kxn7 |C2022 12 15xBpAjm-vFBV]I;A35rGUGLU7JSJk9AJ7=tXbh@^h:explanation807

Station data:
(221) IAS Observatory, Hakos  (S23.236367 E16.361700)  Namibia.  Observers D.
   Husar, L. Demetz. Measurer D. Husar. 0.2-m f/3 Riccardi-Honders + CCD0.5-m
   f/6.8 Corrected Dall-Kirkham + CCD.
(807) Cerro Tololo Observatory, La Serena  (S30.169133 W70.805900)  Chile.
   Observer R. Holmes. 0.61-m f/6.5 astrograph + CCD.
(C51) WISE. Measurers A. Mainzer, E. Wright, J. Bauer, T. Grav, J. Dailey, J.
   Masiero, R. Cutri, R. McMillan, R. Walker.
(T14) Mauna Kea-UH/Tholen NEO Follow-Up (CFHT)  (N19.825252 W155.468876)
   US/Hawaii. 3.6-m Canada-France-Hawaii Telescope.

Orbital elements:  N00kxn7
   Perihelion 2022 Sep 11.68859 +/- 0.107 TT = 16:31:33 (JD 2459834.18859)
Epoch 2022 Dec 15.0 TT = JDT 2459928.5   Earth MOID: 0.4570   Ju: 0.4299
M  20.26083904 +/- 0.10             (J2000 ecliptic)             AutoNEOCP
n   0.21482912 +/- 0.00115          Peri.  180.79445 +/- 0.030
a   2.76104788 +/- 0.00987          Node   156.37398 +/- 0.15
e   0.7998931 +/- 0.000977          Incl.   37.01697 +/- 0.11
P   4.59                   H 18.16  G  0.15   U  8.2
q 0.55250454 +/- 0.00106    Q 4.96959121 +/- 0.0203
From 17 observations 2022 Nov. 24-Dec. 15; mean residual 0".21
Residuals in arcseconds: 
221124 C51  .02-  .23+    221124 C51  .06-  .13+    221214 221  .53+  .01-    
221124 C51  .28+  .23-    221124 C51  .24+  .03-    221214 221  .33+  .27-    
221124 C51  .07-  .10+    221124 C51  .00   .38+    221215 807  .17-  .12+    
221124 C51  .09+  .16-    221214 T14  .02-  .00     221215 807  .16-  .04+    
221124 C51  .61-  .19-    221214 T14  .00   .00     221215 807  .14-  .03-    
221124 C51  .14+  .23-    221214 T14  .00   .00     

Ephemerides (geocentric):
Date (UTC) HH   RA             Dec           delta  r     elong  mag " sig PA
---- --------  ------------   ------------  ------ ------ -----  --- --------
2022 12 15 14  08 06 46.254   -36 39 57.20  1.0471 1.6610 109.7 20.8 .336  18
2022 12 15 15  08 06 40.289   -36 39 34.25  1.0472 1.6615 109.7 20.8 .350  17
2022 12 15 16  08 06 34.323   -36 39 11.22  1.0474 1.6620 109.7 20.8 .365  17
2022 12 15 17  08 06 28.356   -36 38 48.13  1.0475 1.6625 109.8 20.8 .380  17
2022 12 15 18  08 06 22.387   -36 38 24.96  1.0476 1.6630 109.8 20.8 .395  17
2022 12 15 19  08 06 16.416   -36 38 01.71  1.0478 1.6635 109.9 20.8 .411  17
2022 12 15 20  08 06 10.444   -36 37 38.39  1.0479 1.6640 109.9 20.8 .426  16
2022 12 15 21  08 06 04.471   -36 37 15.00  1.0480 1.6644 109.9 20.8 .441  16
2022 12 15 22  08 05 58.496   -36 36 51.53  1.0482 1.6649 110.0 20.8 .456  16
2022 12 15 23  08 05 52.520   -36 36 27.99  1.0483 1.6654 110.0 20.8 .472  16
2022 12 16 00  08 05 46.543   -36 36 04.37  1.0485 1.6659 110.0 20.8 .487  16
2022 12 16 01  08 05 40.564   -36 35 40.68  1.0486 1.6664 110.1 20.8 .503  16
2022 12 16 02  08 05 34.583   -36 35 16.92  1.0487 1.6669 110.1 20.8 .518  16
2022 12 16 03  08 05 28.602   -36 34 53.08  1.0489 1.6674 110.2 20.8 .534  15
2022 12 16 04  08 05 22.619   -36 34 29.17  1.0490 1.6679 110.2 20.8 .550  15
2022 12 16 05  08 05 16.634   -36 34 05.18  1.0491 1.6684 110.2 20.8 .566  15
2022 12 16 06  08 05 10.649   -36 33 41.12  1.0493 1.6689 110.3 20.8 .582  15
2022 12 16 07  08 05 04.662   -36 33 16.98  1.0494 1.6694 110.3 20.8 .597  15
2022 12 16 08  08 04 58.673   -36 32 52.77  1.0495 1.6699 110.3 20.8 .614  15
2022 12 16 09  08 04 52.684   -36 32 28.49  1.0497 1.6704 110.4 20.8 .630  15
2022 12 16 10  08 04 46.693   -36 32 04.13  1.0498 1.6709 110.4 20.8 .646  15
2022 12 16 11  08 04 40.700   -36 31 39.70  1.0500 1.6714 110.5 20.8 .662  15
2022 12 16 12  08 04 34.707   -36 31 15.19  1.0501 1.6719 110.5 20.8 .678  15
2022 12 16 13  08 04 28.712   -36 30 50.61  1.0502 1.6724 110.5 20.8 .695  15
2022 12 16 14  08 04 22.716   -36 30 25.96  1.0504 1.6729 110.6 20.8 .711  15
2022 12 16 15  08 04 16.719   -36 30 01.22  1.0505 1.6734 110.6 20.8 .727  15
2022 12 16 16  08 04 10.721   -36 29 36.42  1.0506 1.6739 110.7 20.8 .744  14
2022 12 16 17  08 04 04.721   -36 29 11.54  1.0508 1.6744 110.7 20.8 .761  14
2022 12 16 18  08 03 58.720   -36 28 46.59  1.0509 1.6749 110.7 20.8 .777  14
2022 12 16 19  08 03 52.718   -36 28 21.56  1.0511 1.6754 110.8 20.8 .794  14
2022 12 16 20  08 03 46.715   -36 27 56.46  1.0512 1.6759 110.8 20.8 .811  14
2022 12 16 21  08 03 40.711   -36 27 31.28  1.0513 1.6764 110.8 20.8 .828  14
2022 12 16 22  08 03 34.705   -36 27 06.03  1.0515 1.6768 110.9 20.8 .845  14
2022 12 16 23  08 03 28.699   -36 26 40.70  1.0516 1.6773 110.9 20.8 .862  14
2022 12 17 00  08 03 22.691   -36 26 15.30  1.0518 1.6778 111.0 20.8 .879  14
2022 12 17 01  08 03 16.682   -36 25 49.82  1.0519 1.6783 111.0 20.8 .896  14
2022 12 17 02  08 03 10.672   -36 25 24.27  1.0520 1.6788 111.0 20.8 .913  14
2022 12 17 03  08 03 04.661   -36 24 58.64  1.0522 1.6793 111.1 20.8 .930  14
2022 12 17 04  08 02 58.649   -36 24 32.94  1.0523 1.6798 111.1 20.8 .948  14
2022 12 17 05  08 02 52.636   -36 24 07.17  1.0525 1.6803 111.1 20.8 .965  14
2022 12 17 06  08 02 46.622   -36 23 41.32  1.0526 1.6808 111.2 20.8 .982  14
2022 12 17 07  08 02 40.606   -36 23 15.39  1.0527 1.6813 111.2 20.8 1.00  14
2022 12 17 08  08 02 34.590   -36 22 49.39  1.0529 1.6818 111.3 20.8 1.02  14
2022 12 17 09  08 02 28.572   -36 22 23.32  1.0530 1.6823 111.3 20.8 1.04  14
2022 12 17 10  08 02 22.554   -36 21 57.17  1.0532 1.6828 111.3 20.8 1.05  14
2022 12 17 11  08 02 16.535   -36 21 30.95  1.0533 1.6833 111.4 20.8 1.07  14
2022 12 17 12  08 02 10.514   -36 21 04.65  1.0534 1.6838 111.4 20.8 1.09  14
2022 12 17 13  08 02 04.493   -36 20 38.27  1.0536 1.6843 111.4 20.8 1.11  14